Погода в Форт-Мак-Мюррей

Канада     56°39′12″N   111°13′09″W
темп.,
°C
ветер,
м/с
пор.,
м/с
влажн.,
%
обл.,
%
осадки,
мм/ч
давл.,
гПа
погр.,
м
9 марта, вт
вт923:00−12юв239171 0.0 102369
02:00−10вюв2292100 0.0 102161
05:00−11вюв229495 0.0 101932
08:00−8вюв1195100 0.4 101766
11:00−6ссз3491100 0.9 1015324
14:00−7ссз469199 0.3 1014401
17:00−8с379399 0.9 1013475
20:00−11с4893100 0.4 1015487
10 марта, ср
ср1023:00−14с4894100 0.7 1017424
02:00−17ссз3890100 0.1 1020371
05:00−22ссз259897 0.1 1024132
08:00−22зсз239825 0.0 1025124
11:00−15сз238057 0.0 1024415
14:00−10з136972 0.0 1023882
17:00−9з257786 0.1 10211054
20:00−12сз2597100 0.2 1022163
11 марта, чт
чт1123:00−18ссв129592 0.3 102322
02:00−21с119521 0.0 102320
05:00−22в119511 0.0 102320
08:00−19вюв23930 0.0 1022127
11:00−12юв35830 0.0 1020397
14:00−7юв357947 0.0 1018690
17:00−7юв368371 0.0 1017378
20:00−9юв3988100 0.0 1017221
12 марта, пт
пт1223:00−11вюв369399 0.0 1017142
02:00−12вюв229592 0.0 101829
05:00−12юв129674 0.0 101921
08:00−11ю129789 0.0 102042
11:00−3юз138185 0.0 1020350
14:00+1ююз13802 0.0 1019518
17:00+1юв129117 0.0 101925
20:00−1юв239397 0.0 101868
13 марта, сб
сб1323:00−3ю229097 0.0 101823
02:00−4з119163 0.0 101921
05:00−6ссз239872 0.0 102281
08:00−8с369398 0.1 1024240
11:00−8с359099 0.1 1025282
14:00−6с3588100 0.0 1024366
17:00−5св3689100 0.1 1023419
20:00−6св3793100 0.1 1022336